EXS5AE LPMA-EGNT

Flight info

Callsign EXS5AE
Flight time 3h 39m
Altitude 34000
Route DEGUN DCT ROLAR DCT MARUM DCT TUNAV DCT DEMOS DCT SOSOV DCT DOLUR DCT UNFIT DCT INFEC DCT KISWO DCT AVTIC DCT ANJAK N38 NOKIN UP17 POL
Aircraft B738/M-SDE2E3FGHIRWXY/LB1

Departure

Time 2026-05-04 19:50
Airport Cristiano Ronaldo International Airport (LPMA)

Arrival

Time 2026-05-04 23:30
Airport Newcastle International Airport (EGNT)
Time Latitude Longitude Altitude Speed Heading
2026-05-04 18:36 32.69333 -16.77694 168 ft 0 kts 138°
2026-05-04 19:39 32.69337 -16.77698 168 ft 4 kts 138°
2026-05-04 19:40 32.69356 -16.77718 168 ft 2 kts 138°
2026-05-04 19:40 32.69373 -16.77734 168 ft 4 kts 167°
2026-05-04 19:40 32.69393 -16.77729 168 ft 3 kts 226°
2026-05-04 19:40 32.69407 -16.77711 168 ft 0 kts 226°
2026-05-04 19:43 32.69405 -16.77713 168 ft 2 kts 226°
2026-05-04 19:43 32.69383 -16.77741 168 ft 7 kts 226°
2026-05-04 19:44 32.69351 -16.77780 168 ft 7 kts 226°
2026-05-04 19:44 32.69319 -16.77819 168 ft 7 kts 225°
2026-05-04 19:44 32.69299 -16.77843 168 ft 0 kts 225°
2026-05-04 19:44 32.69298 -16.77845 168 ft 1 kts 230°
2026-05-04 19:45 32.69290 -16.77876 168 ft 4 kts 263°
2026-05-04 19:45 32.69289 -16.77881 168 ft 0 kts 264°
2026-05-04 19:46 32.69287 -16.77918 168 ft 8 kts 266°
2026-05-04 19:46 32.69284 -16.77984 168 ft 8 kts 268°
2026-05-04 19:47 32.69269 -16.78051 167 ft 11 kts 229°
2026-05-04 19:47 32.69208 -16.78122 165 ft 13 kts 223°
2026-05-04 19:47 32.69139 -16.78202 161 ft 14 kts 224°
2026-05-04 19:47 32.69064 -16.78290 156 ft 16 kts 224°
2026-05-04 19:48 32.68982 -16.78378 152 ft 14 kts 210°
2026-05-04 19:48 32.68899 -16.78409 152 ft 11 kts 207°
2026-05-04 19:48 32.68891 -16.78462 152 ft 7 kts 302°
2026-05-04 19:48 32.68933 -16.78463 152 ft 7 kts 41°
2026-05-04 19:49 32.68954 -16.78422 152 ft 0 kts 47°
2026-05-04 19:49 32.68956 -16.78419 152 ft 8 kts 47°
2026-05-04 19:49 32.69176 -16.78158 163 ft 80 kts 43°
2026-05-04 19:49 32.69735 -16.77508 180 ft 142 kts 44°
2026-05-04 19:50 32.70569 -16.76548 298 ft 186 kts 45°
2026-05-04 19:50 32.71203 -16.75829 681 ft 195 kts 45°
2026-05-04 19:50 32.71994 -16.74460 1233 ft 208 kts 78°
2026-05-04 19:50 32.71845 -16.72773 1910 ft 212 kts 115°
2026-05-04 19:51 32.71155 -16.71133 2211 ft 232 kts 117°
2026-05-04 19:51 32.70424 -16.69368 2642 ft 242 kts 117°
2026-05-04 19:51 32.69693 -16.67553 3244 ft 246 kts 116°
2026-05-04 19:51 32.68960 -16.65673 3665 ft 261 kts 115°
2026-05-04 19:52 32.68196 -16.63660 4189 ft 272 kts 115°
2026-05-04 19:52 32.67426 -16.61596 5019 ft 274 kts 115°
2026-05-04 19:52 32.66658 -16.59527 5875 ft 275 kts 115°
2026-05-04 19:52 32.65888 -16.57423 6646 ft 280 kts 112°
2026-05-04 19:53 32.65621 -16.55127 7366 ft 287 kts 82°
2026-05-04 19:53 32.66351 -16.52943 8121 ft 289 kts 53°
2026-05-04 19:53 32.67707 -16.51164 8864 ft 293 kts 44°
2026-05-04 19:53 32.69187 -16.49471 9615 ft 296 kts 43°
2026-05-04 19:54 32.70698 -16.47789 10337 ft 301 kts 43°
2026-05-04 19:54 32.72265 -16.46046 10581 ft 322 kts 43°
2026-05-04 19:54 32.73950 -16.44161 10764 ft 344 kts 43°
2026-05-04 19:54 32.75731 -16.42157 11107 ft 359 kts 43°
2026-05-04 19:55 32.77559 -16.40088 11689 ft 365 kts 44°
2026-05-04 19:55 32.79406 -16.37988 12351 ft 369 kts 44°
2026-05-04 19:55 32.81270 -16.35863 12995 ft 374 kts 44°
2026-05-04 19:55 32.83160 -16.33703 13625 ft 379 kts 44°
2026-05-04 19:56 32.85069 -16.31517 14227 ft 384 kts 44°
2026-05-04 19:56 32.87004 -16.29302 14793 ft 388 kts 43°
2026-05-04 19:56 32.88952 -16.27067 15491 ft 388 kts 43°
2026-05-04 19:56 32.90897 -16.24835 16104 ft 391 kts 43°
2026-05-04 19:57 32.92869 -16.22572 16620 ft 397 kts 43°
2026-05-04 19:57 32.94870 -16.20273 17130 ft 403 kts 43°
2026-05-04 19:57 32.96899 -16.17942 17651 ft 408 kts 43°
2026-05-04 19:57 32.98949 -16.15583 18174 ft 412 kts 43°
2026-05-04 19:58 33.01024 -16.13194 18643 ft 417 kts 43°
2026-05-04 19:58 33.03120 -16.10780 19139 ft 420 kts 43°
2026-05-04 19:58 33.05228 -16.08349 19674 ft 422 kts 43°
2026-05-04 19:58 33.07342 -16.05909 20181 ft 425 kts 43°
2026-05-04 19:59 33.09472 -16.03451 20671 ft 428 kts 43°
2026-05-04 19:59 33.11615 -16.00975 21151 ft 431 kts 43°
2026-05-04 19:59 33.13772 -15.98481 21615 ft 434 kts 43°
2026-05-04 19:59 33.15947 -15.95965 22064 ft 437 kts 43°
2026-05-04 20:00 33.18138 -15.93428 22540 ft 440 kts 43°
2026-05-04 20:00 33.20337 -15.90880 22998 ft 442 kts 43°
2026-05-04 20:00 33.22557 -15.88306 23396 ft 446 kts 42°
2026-05-04 20:00 33.24794 -15.85710 23777 ft 450 kts 42°
2026-05-04 20:01 33.27047 -15.83094 24131 ft 453 kts 42°
2026-05-04 20:01 33.29308 -15.80465 24534 ft 454 kts 43°
2026-05-04 20:01 33.31572 -15.77830 24935 ft 456 kts 43°
2026-05-04 20:01 33.33851 -15.75177 25297 ft 458 kts 43°
2026-05-04 20:02 33.36106 -15.72550 25640 ft 460 kts 43°
2026-05-04 20:02 33.38407 -15.69867 25996 ft 462 kts 43°
2026-05-04 20:02 33.40716 -15.67178 26343 ft 464 kts 42°
2026-05-04 20:02 33.43265 -15.64820 26629 ft 463 kts 25°
2026-05-04 20:03 33.46160 -15.63160 27011 ft 462 kts 21°
2026-05-04 20:03 33.49097 -15.61570 27379 ft 463 kts 21°
2026-05-04 20:03 33.52039 -15.59980 27700 ft 466 kts 21°
2026-05-04 20:03 33.54992 -15.58364 28002 ft 468 kts 22°
2026-05-04 20:04 33.57959 -15.56715 28295 ft 471 kts 22°
2026-05-04 20:04 33.60929 -15.55045 28618 ft 473 kts 22°
2026-05-04 20:04 33.63909 -15.53357 28920 ft 475 kts 22°
2026-05-04 20:04 33.66901 -15.51655 29213 ft 477 kts 22°
2026-05-04 20:05 33.69900 -15.49946 29516 ft 478 kts 22°
2026-05-04 20:05 33.72900 -15.48234 29928 ft 477 kts 22°
2026-05-04 20:05 33.75889 -15.46528 30383 ft 475 kts 22°
2026-05-04 20:05 33.78862 -15.44830 30804 ft 472 kts 22°
2026-05-04 20:06 33.81824 -15.43139 31143 ft 471 kts 22°
2026-05-04 20:06 33.84790 -15.41446 31411 ft 472 kts 22°
2026-05-04 20:06 33.87751 -15.39754 31691 ft 472 kts 22°
2026-05-04 20:06 33.90714 -15.38060 32021 ft 471 kts 22°
2026-05-04 20:07 33.93671 -15.36367 32359 ft 470 kts 22°
2026-05-04 20:07 33.96619 -15.34678 32658 ft 469 kts 22°
2026-05-04 20:07 33.99569 -15.32987 32951 ft 469 kts 22°
2026-05-04 20:07 34.02512 -15.31298 33246 ft 469 kts 22°
2026-05-04 20:08 34.05458 -15.29606 33548 ft 468 kts 21°
2026-05-04 20:08 34.08389 -15.27922 33822 ft 468 kts 21°
2026-05-04 20:08 34.11334 -15.26228 34103 ft 467 kts 21°
2026-05-04 20:09 34.17242 -15.22828 34167 ft 472 kts 21°
2026-05-04 20:09 34.23079 -15.19324 34158 ft 471 kts 25°
2026-05-04 20:10 34.28719 -15.15353 34163 ft 468 kts 27°
2026-05-04 20:10 34.34336 -15.11272 34174 ft 468 kts 27°
2026-05-04 20:11 34.39887 -15.07273 34175 ft 468 kts 26°
2026-05-04 20:11 34.45495 -15.03266 34173 ft 468 kts 26°
2026-05-04 20:12 34.51106 -14.99264 34172 ft 468 kts 26°
2026-05-04 20:12 34.56718 -14.95256 34177 ft 468 kts 26°
2026-05-04 20:13 34.62334 -14.91237 34183 ft 469 kts 26°
2026-05-04 20:13 34.67961 -14.87203 34178 ft 470 kts 26°
2026-05-04 20:14 34.73071 -14.83533 34179 ft 470 kts 26°
2026-05-04 20:14 34.78705 -14.79482 34183 ft 471 kts 26°
2026-05-04 20:15 34.84347 -14.75418 34187 ft 471 kts 26°
2026-05-04 20:15 34.89990 -14.71347 34190 ft 472 kts 26°
2026-05-04 20:16 34.95638 -14.67265 34189 ft 472 kts 26°
2026-05-04 20:16 35.01284 -14.63178 34188 ft 472 kts 26°
2026-05-04 20:17 35.06935 -14.59081 34187 ft 472 kts 26°
2026-05-04 20:17 35.12575 -14.54985 34192 ft 471 kts 26°
2026-05-04 20:18 35.18209 -14.50887 34191 ft 471 kts 26°
2026-05-04 20:18 35.23832 -14.46790 34187 ft 470 kts 26°
2026-05-04 20:19 35.29451 -14.42690 34187 ft 470 kts 26°
2026-05-04 20:19 35.35052 -14.38596 34187 ft 469 kts 26°
2026-05-04 20:20 35.40655 -14.34494 34206 ft 469 kts 26°
2026-05-04 20:20 35.46248 -14.30393 34196 ft 469 kts 26°
2026-05-04 20:21 35.51809 -14.26308 34189 ft 469 kts 26°
2026-05-04 20:21 35.60202 -14.20131 34183 ft 469 kts 26°
2026-05-04 20:22 35.65803 -14.16000 34201 ft 470 kts 26°
2026-05-04 20:22 35.71416 -14.11854 34201 ft 471 kts 26°
2026-05-04 20:23 35.77039 -14.07693 34207 ft 473 kts 26°
2026-05-04 20:23 35.82687 -14.03507 34200 ft 475 kts 26°
2026-05-04 20:24 35.88362 -13.99293 34204 ft 476 kts 26°
2026-05-04 20:24 35.94037 -13.95072 34216 ft 477 kts 26°
2026-05-04 20:25 35.99736 -13.90826 34209 ft 479 kts 26°
2026-05-04 20:25 36.05441 -13.86568 34204 ft 479 kts 26°
2026-05-04 20:26 36.11147 -13.82302 34200 ft 479 kts 26°
2026-05-04 20:26 36.16850 -13.78031 34201 ft 479 kts 26°
2026-05-04 20:27 36.22549 -13.73754 34210 ft 479 kts 25°
2026-05-04 20:27 36.28244 -13.69475 34195 ft 478 kts 25°
2026-05-04 20:28 36.33924 -13.65199 34197 ft 477 kts 25°
2026-05-04 20:28 36.39593 -13.60924 34198 ft 476 kts 25°
2026-05-04 20:29 36.45245 -13.56655 34197 ft 475 kts 25°
2026-05-04 20:29 36.50886 -13.52386 34207 ft 475 kts 25°
2026-05-04 20:30 36.56529 -13.48108 34205 ft 474 kts 25°
2026-05-04 20:30 36.62152 -13.43839 34191 ft 474 kts 25°
2026-05-04 20:31 36.67805 -13.39636 34207 ft 472 kts 24°
2026-05-04 20:31 36.73476 -13.35487 34215 ft 472 kts 24°
2026-05-04 20:32 36.79142 -13.31329 34199 ft 473 kts 24°
2026-05-04 20:32 36.84803 -13.27154 34196 ft 473 kts 24°
2026-05-04 20:33 36.90431 -13.22990 34196 ft 473 kts 24°
2026-05-04 20:33 36.96090 -13.18794 34196 ft 473 kts 24°
2026-05-04 20:34 37.01756 -13.14586 34203 ft 474 kts 24°
2026-05-04 20:34 37.07425 -13.10369 34203 ft 474 kts 24°
2026-05-04 20:35 37.13096 -13.06143 34190 ft 474 kts 24°
2026-05-04 20:35 37.18757 -13.01916 34197 ft 474 kts 24°
2026-05-04 20:36 37.24423 -12.97679 34223 ft 473 kts 24°
2026-05-04 20:36 37.30081 -12.93440 34196 ft 473 kts 24°
2026-05-04 20:37 37.34771 -12.89921 34190 ft 472 kts 24°
2026-05-04 20:37 37.40402 -12.85688 34191 ft 471 kts 24°
2026-05-04 20:38 37.46019 -12.81459 34193 ft 470 kts 24°
2026-05-04 20:38 37.51624 -12.77231 34208 ft 469 kts 23°
2026-05-04 20:39 37.57224 -12.73001 34197 ft 469 kts 23°
2026-05-04 20:39 37.62815 -12.68770 34192 ft 469 kts 23°
2026-05-04 20:40 37.68402 -12.64533 34195 ft 468 kts 23°
2026-05-04 20:40 37.72402 -12.61495 34198 ft 468 kts 23°
2026-05-04 20:41 37.77987 -12.57248 34196 ft 469 kts 23°
2026-05-04 20:41 37.83573 -12.52992 34196 ft 469 kts 23°
2026-05-04 20:42 37.89166 -12.48724 34196 ft 469 kts 23°
2026-05-04 20:42 37.94754 -12.44451 34193 ft 470 kts 23°
2026-05-04 20:43 38.00353 -12.40162 34236 ft 471 kts 24°
2026-05-04 20:43 38.05970 -12.35851 34200 ft 472 kts 24°
2026-05-04 20:44 38.11582 -12.31536 34187 ft 472 kts 24°
2026-05-04 20:44 38.17159 -12.27239 34196 ft 472 kts 24°
2026-05-04 20:45 38.22803 -12.22884 34196 ft 471 kts 24°
2026-05-04 20:45 38.28370 -12.18581 34204 ft 471 kts 25°
2026-05-04 20:46 38.33960 -12.14251 34192 ft 471 kts 25°
2026-05-04 20:46 38.39550 -12.09913 34198 ft 470 kts 25°
2026-05-04 20:47 38.45124 -12.05580 34194 ft 469 kts 25°
2026-05-04 20:47 38.50686 -12.01249 34223 ft 468 kts 25°
2026-05-04 20:48 38.56235 -11.96921 34197 ft 468 kts 25°
2026-05-04 20:48 38.61788 -11.92581 34189 ft 467 kts 25°
2026-05-04 20:49 38.67313 -11.88254 34190 ft 466 kts 25°
2026-05-04 20:49 38.72840 -11.83918 34190 ft 465 kts 25°
2026-05-04 20:50 38.78348 -11.79590 34202 ft 465 kts 25°
2026-05-04 20:50 38.83862 -11.75249 34194 ft 465 kts 25°
2026-05-04 20:51 38.89333 -11.70933 34189 ft 465 kts 25°
2026-05-04 20:51 38.94839 -11.66583 34185 ft 464 kts 25°
2026-05-04 20:52 39.00339 -11.62228 34216 ft 464 kts 24°
2026-05-04 20:52 39.05839 -11.57867 34186 ft 465 kts 24°
2026-05-04 20:53 39.11342 -11.53493 34182 ft 465 kts 24°
2026-05-04 20:53 39.16843 -11.49113 34185 ft 465 kts 24°
2026-05-04 20:54 39.22341 -11.44727 34182 ft 465 kts 24°
2026-05-04 20:54 39.27844 -11.40329 34187 ft 466 kts 24°
2026-05-04 20:55 39.33356 -11.35943 34184 ft 464 kts 22°
2026-05-04 20:55 39.38940 -11.31802 34193 ft 462 kts 21°
2026-05-04 20:56 39.44553 -11.27726 34187 ft 462 kts 21°
2026-05-04 20:56 39.50150 -11.23623 34206 ft 463 kts 20°
2026-05-04 20:57 39.55743 -11.19485 34188 ft 463 kts 21°
2026-05-04 20:57 39.61335 -11.15328 34178 ft 463 kts 21°
2026-05-04 20:58 39.66921 -11.11166 34182 ft 463 kts 21°
2026-05-04 20:58 39.72495 -11.07007 34222 ft 462 kts 20°
2026-05-04 20:59 39.78086 -11.02829 34184 ft 463 kts 20°
2026-05-04 20:59 39.83662 -10.98654 34161 ft 462 kts 20°
2026-05-04 21:00 39.89229 -10.94477 34175 ft 461 kts 20°
2026-05-04 21:00 39.94793 -10.90295 34172 ft 461 kts 20°
2026-05-04 21:01 40.00350 -10.86111 34178 ft 462 kts 20°
2026-05-04 21:01 40.05918 -10.81912 34171 ft 462 kts 20°
2026-05-04 21:02 40.11477 -10.77709 34163 ft 461 kts 20°
2026-05-04 21:02 40.17024 -10.73507 34166 ft 461 kts 20°
2026-05-04 21:03 40.22567 -10.69302 34162 ft 460 kts 20°
2026-05-04 21:03 40.28104 -10.65093 34163 ft 460 kts 20°
2026-05-04 21:04 40.33634 -10.60881 34163 ft 460 kts 20°
2026-05-04 21:04 40.39174 -10.56654 34184 ft 460 kts 20°
2026-05-04 21:05 40.44675 -10.52448 34194 ft 461 kts 21°
2026-05-04 21:05 40.50265 -10.48166 34165 ft 462 kts 21°
2026-05-04 21:06 40.55823 -10.43899 34160 ft 463 kts 21°
2026-05-04 21:06 40.61379 -10.39625 34158 ft 463 kts 21°
2026-05-04 21:07 40.66901 -10.35370 34202 ft 463 kts 21°
2026-05-04 21:07 40.72466 -10.31074 34156 ft 464 kts 21°
2026-05-04 21:08 40.78016 -10.26779 34147 ft 462 kts 21°
2026-05-04 21:08 40.83559 -10.22482 34145 ft 461 kts 21°
2026-05-04 21:09 40.89078 -10.18195 34156 ft 460 kts 21°
2026-05-04 21:09 40.94589 -10.13907 34150 ft 459 kts 22°
2026-05-04 21:10 41.00085 -10.09622 34145 ft 458 kts 22°
2026-05-04 21:10 41.05560 -10.05345 34141 ft 457 kts 22°
2026-05-04 21:11 41.11023 -10.01069 34142 ft 456 kts 22°
2026-05-04 21:11 41.16479 -9.96791 34139 ft 456 kts 22°
2026-05-04 21:12 41.21934 -9.92505 34144 ft 455 kts 22°
2026-05-04 21:12 41.27372 -9.88224 34135 ft 454 kts 22°
2026-05-04 21:13 41.32812 -9.83932 34140 ft 454 kts 22°
2026-05-04 21:13 41.38245 -9.79640 34162 ft 455 kts 24°
2026-05-04 21:14 41.43694 -9.75325 34138 ft 456 kts 24°
2026-05-04 21:14 41.49144 -9.70999 34128 ft 456 kts 24°
2026-05-04 21:15 41.54593 -9.66666 34128 ft 456 kts 24°
2026-05-04 21:15 41.60000 -9.62359 34153 ft 455 kts 25°
2026-05-04 21:16 41.65471 -9.57991 34124 ft 455 kts 25°
2026-05-04 21:16 41.70862 -9.53678 34119 ft 454 kts 25°
2026-05-04 21:17 41.76280 -9.49335 34112 ft 453 kts 25°
2026-05-04 21:17 41.81690 -9.44989 34151 ft 453 kts 26°
2026-05-04 21:18 41.87089 -9.40645 34131 ft 452 kts 26°
2026-05-04 21:18 41.92505 -9.36357 34113 ft 450 kts 21°
2026-05-04 21:19 41.98278 -9.33424 34121 ft 442 kts 13°
2026-05-04 21:19 42.04122 -9.30832 34131 ft 442 kts 13°
2026-05-04 21:20 42.09964 -9.28207 34118 ft 443 kts 13°
2026-05-04 21:20 42.15807 -9.25533 34117 ft 443 kts 14°
2026-05-04 21:21 42.21645 -9.22836 34111 ft 444 kts 14°
2026-05-04 21:21 42.27484 -9.20131 34112 ft 444 kts 14°
2026-05-04 21:22 42.33334 -9.17416 34107 ft 445 kts 14°
2026-05-04 21:22 42.39147 -9.14713 34103 ft 445 kts 14°
2026-05-04 21:23 42.44997 -9.11987 34098 ft 445 kts 14°
2026-05-04 21:23 42.50857 -9.09252 34095 ft 445 kts 14°
2026-05-04 21:24 42.56712 -9.06515 34102 ft 446 kts 14°
2026-05-04 21:24 42.62583 -9.03764 34104 ft 447 kts 14°
2026-05-04 21:25 42.68458 -9.01006 34110 ft 448 kts 15°
2026-05-04 21:25 42.73399 -8.98682 34090 ft 448 kts 15°
2026-05-04 21:26 42.79254 -8.95922 34100 ft 448 kts 15°
2026-05-04 21:26 42.85146 -8.93139 34101 ft 447 kts 15°
2026-05-04 21:27 42.91025 -8.90358 34096 ft 448 kts 15°
2026-05-04 21:27 42.96913 -8.87566 34098 ft 447 kts 15°
2026-05-04 21:28 43.02787 -8.84775 34093 ft 447 kts 15°
2026-05-04 21:28 43.08667 -8.81976 34092 ft 447 kts 15°
2026-05-04 21:29 43.14534 -8.79177 34093 ft 446 kts 15°
2026-05-04 21:29 43.20389 -8.76379 34085 ft 446 kts 15°
2026-05-04 21:30 43.26244 -8.73575 34079 ft 446 kts 15°
2026-05-04 21:30 43.32088 -8.70770 34097 ft 445 kts 16°
2026-05-04 21:31 43.40862 -8.66548 34073 ft 445 kts 16°
2026-05-04 21:32 43.46695 -8.63735 34074 ft 444 kts 16°
2026-05-04 21:32 43.52535 -8.60912 34081 ft 444 kts 17°
2026-05-04 21:33 43.58369 -8.58086 34063 ft 445 kts 17°
2026-05-04 21:33 43.64207 -8.55252 34064 ft 445 kts 17°
2026-05-04 21:34 43.70048 -8.52411 34061 ft 445 kts 17°
2026-05-04 21:34 43.75885 -8.49567 34065 ft 445 kts 17°
2026-05-04 21:35 43.81724 -8.46715 34064 ft 445 kts 17°
2026-05-04 21:35 43.87563 -8.43857 34060 ft 445 kts 17°
2026-05-04 21:36 43.93356 -8.41016 34068 ft 444 kts 17°
2026-05-04 21:36 43.99176 -8.38156 34062 ft 444 kts 17°
2026-05-04 21:37 44.04987 -8.35294 34061 ft 443 kts 17°
2026-05-04 21:37 44.10793 -8.32429 34045 ft 443 kts 18°
2026-05-04 21:38 44.16591 -8.29562 34056 ft 443 kts 18°
2026-05-04 21:38 44.22399 -8.26684 34049 ft 443 kts 18°
2026-05-04 21:39 44.28205 -8.23800 34048 ft 443 kts 18°
2026-05-04 21:39 44.34019 -8.20907 34051 ft 443 kts 18°
2026-05-04 21:40 44.39828 -8.18010 34043 ft 444 kts 18°
2026-05-04 21:40 44.45644 -8.15103 34042 ft 444 kts 18°
2026-05-04 21:41 44.51460 -8.12190 34038 ft 444 kts 18°
2026-05-04 21:41 44.57273 -8.09273 34039 ft 444 kts 18°
2026-05-04 21:42 44.63091 -8.06347 34039 ft 444 kts 18°
2026-05-04 21:42 44.68906 -8.03415 34038 ft 444 kts 18°
2026-05-04 21:43 44.74715 -8.00481 34045 ft 444 kts 18°
2026-05-04 21:43 44.80519 -7.97543 34033 ft 443 kts 18°
2026-05-04 21:44 44.86320 -7.94600 34034 ft 442 kts 18°
2026-05-04 21:44 44.92107 -7.91657 34036 ft 442 kts 19°
2026-05-04 21:45 44.97842 -7.88736 34033 ft 441 kts 19°
2026-05-04 21:45 45.03553 -7.85613 34031 ft 440 kts 21°
2026-05-04 21:46 45.08602 -7.82664 34031 ft 439 kts 21°
2026-05-04 21:46 45.14243 -7.79360 34035 ft 438 kts 21°
2026-05-04 21:47 45.19880 -7.76084 34031 ft 438 kts 21°
2026-05-04 21:47 45.25513 -7.72820 34036 ft 437 kts 21°
2026-05-04 21:48 45.31155 -7.69548 34026 ft 438 kts 21°
2026-05-04 21:48 45.36801 -7.66268 34035 ft 439 kts 21°
2026-05-04 21:49 45.42455 -7.62976 34031 ft 439 kts 21°
2026-05-04 21:49 45.48111 -7.59674 34032 ft 440 kts 21°
2026-05-04 21:50 45.53784 -7.56356 34038 ft 440 kts 22°
2026-05-04 21:50 45.59456 -7.53031 34026 ft 441 kts 22°
2026-05-04 21:51 45.65122 -7.49702 34031 ft 440 kts 22°
2026-05-04 21:51 45.70787 -7.46366 34028 ft 440 kts 22°
2026-05-04 21:52 45.76438 -7.43031 34030 ft 439 kts 22°
2026-05-04 21:52 45.82061 -7.39705 34027 ft 439 kts 22°
2026-05-04 21:53 45.87750 -7.36333 34025 ft 439 kts 22°
2026-05-04 21:53 45.93395 -7.32979 34027 ft 439 kts 22°
2026-05-04 21:54 45.99002 -7.29642 34021 ft 439 kts 22°
2026-05-04 21:54 46.04640 -7.26277 34026 ft 438 kts 22°
2026-05-04 21:55 46.10268 -7.22912 34026 ft 438 kts 22°
2026-05-04 21:55 46.15902 -7.19535 34026 ft 438 kts 22°
2026-05-04 21:56 46.21529 -7.16155 34022 ft 438 kts 23°
2026-05-04 21:56 46.27152 -7.12770 34025 ft 438 kts 23°
2026-05-04 21:57 46.32779 -7.09375 34025 ft 438 kts 23°
2026-05-04 21:57 46.38404 -7.05973 34023 ft 438 kts 23°
2026-05-04 21:58 46.44033 -7.02562 34029 ft 438 kts 23°
2026-05-04 21:58 46.49662 -6.99143 34024 ft 438 kts 23°
2026-05-04 21:59 46.55284 -6.95720 34027 ft 438 kts 23°
2026-05-04 21:59 46.60915 -6.92284 34028 ft 438 kts 23°
2026-05-04 22:00 46.66538 -6.88846 34024 ft 439 kts 23°
2026-05-04 22:00 46.72161 -6.85399 34027 ft 439 kts 23°
2026-05-04 22:01 46.77790 -6.81941 34026 ft 439 kts 24°
2026-05-04 22:01 46.83411 -6.78481 34026 ft 439 kts 24°
2026-05-04 22:02 46.89034 -6.75010 34027 ft 439 kts 24°
2026-05-04 22:02 46.94624 -6.71552 34026 ft 439 kts 24°
2026-05-04 22:03 47.00246 -6.68067 34026 ft 438 kts 24°
2026-05-04 22:03 47.05854 -6.64583 34026 ft 438 kts 24°
2026-05-04 22:04 47.11468 -6.61086 34024 ft 438 kts 24°
2026-05-04 22:04 47.17075 -6.57586 34022 ft 438 kts 24°
2026-05-04 22:05 47.22672 -6.54085 34025 ft 437 kts 24°
2026-05-04 22:05 47.28271 -6.50573 34028 ft 437 kts 24°
2026-05-04 22:06 47.33871 -6.47053 34026 ft 438 kts 24°
2026-05-04 22:06 47.39472 -6.43525 34028 ft 438 kts 24°
2026-05-04 22:07 47.45074 -6.39987 34024 ft 438 kts 24°
2026-05-04 22:07 47.50685 -6.36436 34029 ft 438 kts 24°
2026-05-04 22:08 47.56292 -6.32878 34031 ft 439 kts 24°
2026-05-04 22:08 47.61901 -6.29311 34030 ft 439 kts 24°
2026-05-04 22:09 47.67517 -6.25732 34026 ft 439 kts 25°
2026-05-04 22:09 47.73134 -6.22143 34027 ft 440 kts 25°
2026-05-04 22:10 47.78754 -6.18544 34033 ft 440 kts 25°
2026-05-04 22:10 47.84379 -6.14933 34034 ft 440 kts 25°
2026-05-04 22:11 47.90008 -6.11311 34038 ft 440 kts 25°
2026-05-04 22:11 47.95629 -6.07686 34029 ft 440 kts 25°
2026-05-04 22:12 48.01239 -6.04059 34027 ft 439 kts 25°
2026-05-04 22:12 48.06811 -6.00448 34014 ft 439 kts 25°
2026-05-04 22:13 48.12400 -5.96817 34012 ft 438 kts 25°
2026-05-04 22:13 48.17981 -5.93183 34031 ft 437 kts 25°
2026-05-04 22:14 48.22655 -5.90133 34028 ft 437 kts 25°
2026-05-04 22:14 48.28191 -5.86513 34030 ft 437 kts 25°
2026-05-04 22:15 48.33787 -5.82844 34029 ft 436 kts 25°
2026-05-04 22:15 48.39304 -5.79219 34028 ft 435 kts 25°
2026-05-04 22:16 48.44840 -5.75572 34033 ft 434 kts 25°
2026-05-04 22:16 48.50370 -5.71921 34032 ft 433 kts 25°
2026-05-04 22:17 48.55889 -5.68268 34030 ft 433 kts 25°
2026-05-04 22:17 48.61394 -5.64616 34031 ft 432 kts 25°
2026-05-04 22:18 48.66896 -5.60957 34032 ft 432 kts 25°
2026-05-04 22:18 48.72403 -5.57286 34035 ft 433 kts 25°
2026-05-04 22:19 48.77921 -5.53599 34033 ft 434 kts 25°
2026-05-04 22:19 48.83448 -5.49896 34034 ft 435 kts 25°
2026-05-04 22:20 48.88992 -5.46173 34034 ft 436 kts 25°
2026-05-04 22:20 48.94546 -5.42435 34032 ft 437 kts 25°
2026-05-04 22:21 49.00109 -5.38681 34030 ft 437 kts 25°
2026-05-04 22:21 49.05671 -5.34919 34032 ft 438 kts 25°
2026-05-04 22:22 49.11243 -5.31141 34029 ft 438 kts 25°
2026-05-04 22:22 49.16779 -5.27377 34025 ft 439 kts 25°
2026-05-04 22:23 49.22361 -5.23574 34034 ft 439 kts 25°
2026-05-04 22:23 49.27939 -5.19763 34032 ft 439 kts 25°
2026-05-04 22:24 49.33522 -5.15939 34033 ft 439 kts 25°
2026-05-04 22:24 49.39104 -5.12106 34032 ft 439 kts 25°
2026-05-04 22:25 49.44679 -5.08269 34034 ft 439 kts 25°
2026-05-04 22:25 49.50337 -5.04788 34027 ft 439 kts 16°
2026-05-04 22:26 49.56281 -5.02605 34029 ft 439 kts 14°
2026-05-04 22:26 49.62236 -5.00540 34029 ft 438 kts 14°
2026-05-04 22:27 49.68171 -4.98414 34027 ft 437 kts 14°
2026-05-04 22:27 49.74082 -4.96242 34032 ft 437 kts 14°
2026-05-04 22:28 49.79985 -4.94050 34032 ft 436 kts 15°
2026-05-04 22:28 49.85883 -4.91854 34032 ft 436 kts 15°
2026-05-04 22:29 49.91742 -4.89667 34028 ft 435 kts 15°
2026-05-04 22:29 49.97664 -4.87453 34027 ft 435 kts 15°
2026-05-04 22:30 50.03546 -4.85248 34026 ft 435 kts 15°
2026-05-04 22:30 50.09426 -4.83038 34028 ft 435 kts 15°
2026-05-04 22:31 50.15265 -4.80838 34030 ft 434 kts 15°
2026-05-04 22:31 50.21134 -4.78622 34038 ft 434 kts 15°
2026-05-04 22:32 50.27013 -4.76396 34042 ft 434 kts 15°
2026-05-04 22:32 50.32883 -4.74167 34031 ft 434 kts 15°
2026-05-04 22:33 50.38751 -4.71934 34047 ft 434 kts 15°
2026-05-04 22:33 50.44615 -4.69697 34044 ft 434 kts 15°
2026-05-04 22:34 50.50483 -4.67452 34036 ft 434 kts 15°
2026-05-04 22:34 50.56349 -4.65202 34032 ft 434 kts 15°
2026-05-04 22:35 50.62209 -4.62949 34041 ft 433 kts 15°
2026-05-04 22:35 50.68064 -4.60693 34044 ft 434 kts 15°
2026-05-04 22:36 50.73929 -4.58426 34037 ft 434 kts 15°
2026-05-04 22:36 50.79799 -4.56151 34030 ft 434 kts 15°
2026-05-04 22:37 50.85659 -4.53869 34032 ft 434 kts 15°
2026-05-04 22:37 50.91509 -4.51594 34043 ft 433 kts 15°
2026-05-04 22:38 50.97365 -4.49310 34043 ft 433 kts 15°
2026-05-04 22:38 51.03211 -4.47021 34043 ft 432 kts 15°
2026-05-04 22:39 51.09043 -4.44732 34049 ft 432 kts 15°
2026-05-04 22:39 51.14876 -4.42436 34045 ft 432 kts 15°
2026-05-04 22:40 51.20705 -4.40136 34046 ft 431 kts 15°
2026-05-04 22:40 51.26529 -4.37832 34045 ft 431 kts 15°
2026-05-04 22:41 51.32331 -4.35530 34036 ft 429 kts 15°
2026-05-04 22:41 51.38094 -4.33239 34039 ft 425 kts 15°
2026-05-04 22:42 51.43648 -4.30218 34035 ft 420 kts 30°
2026-05-04 22:42 51.48574 -4.25212 34054 ft 423 kts 34°
2026-05-04 22:43 51.53544 -4.20064 34042 ft 425 kts 33°
2026-05-04 22:43 51.58572 -4.15135 34047 ft 422 kts 32°
2026-05-04 22:44 51.63634 -4.10380 34049 ft 420 kts 32°
2026-05-04 22:44 51.68657 -4.05643 34048 ft 418 kts 32°
2026-05-04 22:45 51.73652 -4.00889 34053 ft 416 kts 32°
2026-05-04 22:45 51.81100 -3.93756 34050 ft 414 kts 32°
2026-05-04 22:46 51.86022 -3.89024 34058 ft 414 kts 32°
2026-05-04 22:46 51.90971 -3.84253 34063 ft 415 kts 32°
2026-05-04 22:47 51.95941 -3.79450 34068 ft 417 kts 32°
2026-05-04 22:47 52.00932 -3.74615 34071 ft 419 kts 32°
2026-05-04 22:48 52.05939 -3.69753 34060 ft 419 kts 32°
2026-05-04 22:48 52.10930 -3.64893 34079 ft 417 kts 32°
2026-05-04 22:49 52.15896 -3.60044 34064 ft 415 kts 32°
2026-05-04 22:49 52.20838 -3.55206 34065 ft 413 kts 32°
2026-05-04 22:50 52.25741 -3.50393 34068 ft 410 kts 33°
2026-05-04 22:50 52.30596 -3.45615 34068 ft 406 kts 33°
2026-05-04 22:51 52.35421 -3.40854 34074 ft 404 kts 33°
2026-05-04 22:51 52.40228 -3.36098 34084 ft 404 kts 33°
2026-05-04 22:52 52.45048 -3.31316 34076 ft 405 kts 33°
2026-05-04 22:52 52.49873 -3.26518 34068 ft 406 kts 33°
2026-05-04 22:53 52.54600 -3.21805 34076 ft 408 kts 33°
2026-05-04 22:53 52.58631 -3.17780 34079 ft 408 kts 32°
2026-05-04 22:54 52.63885 -3.14304 34086 ft 413 kts 15°
2026-05-04 22:54 52.69580 -3.13268 34080 ft 415 kts
2026-05-04 22:55 52.75111 -3.10890 34069 ft 410 kts 26°
2026-05-04 22:55 52.80235 -3.06800 34085 ft 410 kts 27°
2026-05-04 22:56 52.85379 -3.02689 34079 ft 411 kts 27°
2026-05-04 22:56 52.90571 -2.98699 34080 ft 412 kts 23°
2026-05-04 22:57 52.95955 -2.95410 34081 ft 413 kts 21°
2026-05-04 22:57 53.01388 -2.92172 34069 ft 414 kts 21°
2026-05-04 22:58 53.06792 -2.88823 34083 ft 415 kts 24°
2026-05-04 22:58 53.11718 -2.83866 34081 ft 415 kts 36°
2026-05-04 22:59 53.16439 -2.78289 34076 ft 416 kts 36°
2026-05-04 22:59 53.21190 -2.72757 34072 ft 418 kts 35°
2026-05-04 23:00 53.25892 -2.67319 33966 ft 401 kts 34°
2026-05-04 23:00 53.28173 -2.64691 33689 ft 393 kts 34°
2026-05-04 23:00 53.30413 -2.62115 33325 ft 390 kts 34°
2026-05-04 23:01 53.31889 -2.60415 33131 ft 386 kts 34°
2026-05-04 23:01 53.34086 -2.57884 32745 ft 383 kts 34°
2026-05-04 23:01 53.36278 -2.55353 32389 ft 380 kts 34°
2026-05-04 23:01 53.38442 -2.52851 32044 ft 377 kts 34°
2026-05-04 23:02 53.40591 -2.50361 31696 ft 374 kts 34°
2026-05-04 23:02 53.42730 -2.47882 31351 ft 372 kts 35°
2026-05-04 23:02 53.44639 -2.45666 31119 ft 369 kts 35°
2026-05-04 23:02 53.46768 -2.43191 30905 ft 382 kts 35°
2026-05-04 23:03 53.48994 -2.40584 30683 ft 398 kts 35°
2026-05-04 23:03 53.51292 -2.37866 30466 ft 411 kts 35°
2026-05-04 23:03 53.53641 -2.35078 30209 ft 412 kts 35°
2026-05-04 23:03 53.55968 -2.32312 29922 ft 409 kts 35°
2026-05-04 23:04 53.58281 -2.29561 29634 ft 406 kts 35°
2026-05-04 23:04 53.60574 -2.26832 29282 ft 401 kts 35°
2026-05-04 23:04 53.62831 -2.24142 28901 ft 395 kts 35°
2026-05-04 23:04 53.65072 -2.21468 28481 ft 392 kts 35°
2026-05-04 23:05 53.67280 -2.18831 28062 ft 388 kts 35°
2026-05-04 23:05 53.69470 -2.16212 27653 ft 385 kts 35°
2026-05-04 23:05 53.71647 -2.13606 27245 ft 382 kts 36°
2026-05-04 23:05 53.73807 -2.11026 26825 ft 379 kts 33°
2026-05-04 23:06 53.76139 -2.09004 26394 ft 377 kts 20°
2026-05-04 23:06 53.76729 -2.08638 26302 ft 376 kts 19°
2026-05-04 23:06 53.79015 -2.07313 25926 ft 374 kts 18°
2026-05-04 23:06 53.81479 -2.05942 25518 ft 372 kts 18°
2026-05-04 23:07 53.83931 -2.04570 25130 ft 370 kts 18°
2026-05-04 23:07 53.86373 -2.03177 24729 ft 369 kts 18°
2026-05-04 23:07 53.88795 -2.01771 24355 ft 367 kts 18°
2026-05-04 23:07 53.91207 -2.00354 23970 ft 366 kts 19°
2026-05-04 23:08 53.93608 -1.98932 23564 ft 366 kts 18°
2026-05-04 23:08 53.96002 -1.97508 23123 ft 364 kts 18°
2026-05-04 23:08 53.98390 -1.96085 22717 ft 362 kts 18°
2026-05-04 23:08 54.00761 -1.94670 22319 ft 360 kts 18°
2026-05-04 23:09 54.03119 -1.93261 21935 ft 358 kts 18°
2026-05-04 23:09 54.05457 -1.91863 21559 ft 356 kts 18°
2026-05-04 23:09 54.07759 -1.90484 21188 ft 354 kts 18°
2026-05-04 23:09 54.10071 -1.89099 20808 ft 352 kts 18°
2026-05-04 23:10 54.12377 -1.87714 20435 ft 351 kts 18°
2026-05-04 23:10 54.14679 -1.86393 20056 ft 348 kts 13°
2026-05-04 23:10 54.17043 -1.85503 19680 ft 346 kts
2026-05-04 23:10 54.19416 -1.84821 19316 ft 345 kts
2026-05-04 23:11 54.21785 -1.84170 18944 ft 344 kts
2026-05-04 23:11 54.24146 -1.83498 18585 ft 344 kts
2026-05-04 23:11 54.26502 -1.82801 18179 ft 344 kts
2026-05-04 23:11 54.28854 -1.82082 17785 ft 343 kts
2026-05-04 23:12 54.31200 -1.81352 17410 ft 341 kts
2026-05-04 23:12 54.33526 -1.80622 17042 ft 340 kts
2026-05-04 23:12 54.35847 -1.79890 16689 ft 338 kts
2026-05-04 23:12 54.38148 -1.79165 16333 ft 336 kts
2026-05-04 23:13 54.40440 -1.78441 15960 ft 334 kts
2026-05-04 23:13 54.42765 -1.77708 15249 ft 345 kts
2026-05-04 23:13 54.45147 -1.76956 14584 ft 352 kts
2026-05-04 23:13 54.47582 -1.76186 13877 ft 359 kts
2026-05-04 23:14 54.50067 -1.75398 13043 ft 367 kts
2026-05-04 23:14 54.52591 -1.74596 12260 ft 371 kts
2026-05-04 23:14 54.55129 -1.73787 11710 ft 364 kts
2026-05-04 23:14 54.57567 -1.73005 11281 ft 349 kts
2026-05-04 23:15 54.59907 -1.72256 10838 ft 336 kts
2026-05-04 23:15 54.62171 -1.71533 10424 ft 325 kts
2026-05-04 23:15 54.64361 -1.70834 10035 ft 315 kts
2026-05-04 23:15 54.66448 -1.70165 9969 ft 294 kts
2026-05-04 23:16 54.68396 -1.69538 9922 ft 275 kts
2026-05-04 23:16 54.70222 -1.68852 9787 ft 263 kts 18°
2026-05-04 23:16 54.71660 -1.66982 9547 ft 264 kts 53°
2026-05-04 23:16 54.72562 -1.64219 9320 ft 263 kts 60°
2026-05-04 23:17 54.73415 -1.61428 9056 ft 262 kts 60°
2026-05-04 23:17 54.74265 -1.58653 8804 ft 261 kts 60°
2026-05-04 23:17 54.75122 -1.55852 8460 ft 264 kts 60°
2026-05-04 23:17 54.75967 -1.53094 8225 ft 263 kts 60°
2026-05-04 23:18 54.76824 -1.50303 7984 ft 261 kts 60°
2026-05-04 23:18 54.77670 -1.47559 7747 ft 256 kts 60°
2026-05-04 23:18 54.78514 -1.44833 7331 ft 257 kts 60°
2026-05-04 23:18 54.79361 -1.42115 6892 ft 257 kts 60°
2026-05-04 23:19 54.80214 -1.39405 6522 ft 255 kts 60°
2026-05-04 23:19 54.81061 -1.36732 6252 ft 252 kts 60°
2026-05-04 23:19 54.81923 -1.34035 5930 ft 252 kts 60°
2026-05-04 23:19 54.82767 -1.31409 5619 ft 252 kts 60°
2026-05-04 23:20 54.83621 -1.28768 5311 ft 251 kts 60°
2026-05-04 23:20 54.84482 -1.26150 4996 ft 248 kts 57°
2026-05-04 23:20 54.85725 -1.24184 4648 ft 243 kts 20°
2026-05-04 23:20 54.87346 -1.23788 4383 ft 233 kts 356°
2026-05-04 23:21 54.88939 -1.23817 4132 ft 230 kts 357°
2026-05-04 23:21 54.90531 -1.23840 3871 ft 228 kts 357°
2026-05-04 23:21 54.92107 -1.23867 3614 ft 223 kts 357°
2026-05-04 23:21 54.93633 -1.23898 3403 ft 214 kts 357°
2026-05-04 23:22 54.95091 -1.23932 3321 ft 208 kts 355°
2026-05-04 23:22 54.96473 -1.24540 3254 ft 204 kts 335°
2026-05-04 23:22 54.97782 -1.25496 3198 ft 204 kts 336°
2026-05-04 23:22 54.99098 -1.26421 3132 ft 203 kts 336°
2026-05-04 23:23 55.00409 -1.27342 3072 ft 203 kts 336°
2026-05-04 23:23 55.01723 -1.28234 3008 ft 202 kts 336°
2026-05-04 23:23 55.03034 -1.29119 2941 ft 202 kts 336°
2026-05-04 23:23 55.04344 -1.30001 2874 ft 201 kts 336°
2026-05-04 23:24 55.05495 -1.31285 2786 ft 197 kts 307°
2026-05-04 23:24 55.06286 -1.33219 2755 ft 197 kts 304°
2026-05-04 23:24 55.07091 -1.35129 2670 ft 191 kts 305°
2026-05-04 23:24 55.07863 -1.36945 2584 ft 181 kts 305°
2026-05-04 23:25 55.08597 -1.38673 2502 ft 175 kts 305°
2026-05-04 23:25 55.09318 -1.40374 2439 ft 174 kts 305°
2026-05-04 23:25 55.10024 -1.42080 2378 ft 171 kts 299°
2026-05-04 23:25 55.10208 -1.43964 2236 ft 155 kts 252°
2026-05-04 23:26 55.09815 -1.45681 2234 ft 159 kts 257°
2026-05-04 23:26 55.09493 -1.47470 2243 ft 149 kts 250°
2026-05-04 23:26 55.09094 -1.49032 2002 ft 138 kts 248°
2026-05-04 23:26 55.08699 -1.50518 2024 ft 141 kts 248°
2026-05-04 23:27 55.08282 -1.52082 2009 ft 142 kts 248°
2026-05-04 23:27 55.07865 -1.53648 1994 ft 142 kts 248°
2026-05-04 23:27 55.07443 -1.55234 1839 ft 145 kts 248°
2026-05-04 23:27 55.07019 -1.56824 1641 ft 143 kts 248°
2026-05-04 23:28 55.06605 -1.58381 1452 ft 141 kts 249°
2026-05-04 23:28 55.06193 -1.59934 1251 ft 142 kts 248°
2026-05-04 23:28 55.05779 -1.61491 1054 ft 142 kts 247°
2026-05-04 23:28 55.05368 -1.63040 841 ft 140 kts 247°
2026-05-04 23:29 55.04965 -1.64593 637 ft 140 kts 247°
2026-05-04 23:29 55.04719 -1.65539 541 ft 140 kts 245°
2026-05-04 23:29 55.04355 -1.66870 378 ft 141 kts 245°
2026-05-04 23:29 55.03946 -1.68401 248 ft 132 kts 245°
2026-05-04 23:30 55.03620 -1.69616 257 ft 90 kts 245°
2026-05-04 23:30 55.03460 -1.70222 263 ft 31 kts 245°
2026-05-04 23:30 55.03389 -1.70501 266 ft 16 kts 247°
2026-05-04 23:30 55.03412 -1.70648 267 ft 15 kts 348°
2026-05-04 23:31 55.03492 -1.70649 266 ft 10 kts
2026-05-04 23:31 55.03560 -1.70642 266 ft 9 kts 27°
2026-05-04 23:31 55.03592 -1.70554 266 ft 9 kts 72°
2026-05-04 23:31 55.03616 -1.70461 266 ft 8 kts 47°
2026-05-04 23:32 55.03670 -1.70434 266 ft 8 kts
2026-05-04 23:32 55.03725 -1.70426 266 ft 8 kts
2026-05-04 23:32 55.03777 -1.70438 266 ft 8 kts 330°
2026-05-04 23:32 55.03798 -1.70534 266 ft 10 kts 279°
2026-05-04 23:33 55.03804 -1.70638 266 ft 6 kts 276°
2026-05-04 23:33 55.03831 -1.70667 266 ft 5 kts
2026-05-04 23:33 55.03863 -1.70662 266 ft 3 kts
2026-05-04 23:33 55.03874 -1.70660 266 ft 1 kts
2026-05-04 23:34 55.03875 -1.70660 266 ft 0 kts